Tracking 29967 objects as of 5-Dec-2024
HD Live streaming from Space Station
objects crossing your sky now

ATLAS 5 CENTAUR DEB

Track ATLAS 5 CENTAUR DEB now!


NORAD ID: 53516
Int'l Code: 2014-055DM
Perigee: 8,312.2 km
Apogee: 35,507.0 km
Inclination: 19.7 °
Period: 788.8 minutes
Semi major axis: 28280 km
RCS: Unknown
Launch date: September 17, 2014
Source: United States (US)
Launch site: AIR FORCE EASTERN TEST RANGE (AFETR)

Note: This is SATELLITE DEBRIS
Your satellite tracking list
Your tracking list is empty




NASA's NSSDC Master Catalog

Two Line Element Set (TLE):
1 53516U 14055DP  24340.28470457 -.00000015  00000-0  00000+0 0  9991
2 53516  19.6600 210.1962 4808025  48.7654 343.8513  1.82544881 15875
Source of the keplerian elements: AFSPC